SCP
0 0 -0 -0 -0 -0 -0 -0 -0 -0 -0 -0 -0 -0 -0 -0 -0 -0 -0 -0 -0 -0 -0 -0 -0 -0 -0 -0 -0 -0 -0 -0 -0 -0 -0 -0 -0 -0 -0 -0 0 -0 -0
0 0 -0 -0 -0 -0 -0 -0 -0 -0 -0 -0 -0 -0 -0 -0 -0 -0 -0 -0 -0 -0 -0 -0 -0 -0 -0 -0 -0 -0 -0 -0 0 -0 -0 -0 -0 -0 -0 0 0 -0 -0
0 0 0 -0 -0 -0 -0 -0 -0 -0 -0 -0 -0 -0 -0 -0 -0 -0 -0 -0 -0 -0 -0 -0 -0 -0 -0 -0 -0 -0 -0 0 -0 -0 -0 -0 -0 0 0 0 -0 -0 -0
0 0 0 0 -0 -0 -0 -0 -0 -0 -0 -0 -0 -0 -0 -0 -0 -0 -0 -0 -0 -0 -0 -0 -0 -0 -0 -0 -0 -0 -0 -0 -0 -0 -0 -0 -0 0 0 -0 -0 -0 -0
0 0 0 0 0 -0 -0 -0 0 0 -0 -0 -0 -0 -0 -0 -0 -0 -0 -0 -0 -0 -0 -0 -0 -0 -0 -0 -0 -0 -0 -0 -0 0 -0 -0 -0 0 -0 0 0 0 0
0 0 0 0 0 0 0 0 0 0 0 -0 -0 -0 -0 -0 -0 -0 -0 -0 -0 -0 -0 -0 -0 -0 -0 -0 -0 -0 -0 -0 0 0 0 0 -0 0 0 0 0 0 -0
0 0 0 0 0 0 0 0 0 0 0 -0 -0 -0 -0 -0 -0 -0 -0 -0 -0 -0 -0 -0 -0 -0 -0 -0 0 0 0 0 0 0 0 0 -0 0 0 0 0 0 0
0 0 0 0 0 0 0 0 0 0 0 -0 -0 -0 -0 -0 -0 -0 -0 -0 -0 -0 -0 -0 -0 0 0 0 0 0 0 -0 0 0 0 0 -0 0 0 0 0 0 0
0 0 0 0 0 0 0 0 0 0 0 0 -0 -0 -0 -0 0 0 -0 -0 -0 -0 0 0 0 0 0 0 0 0 0 0 0 0 0 0 -0 0 0 0 0 0 -0
0 0 0 0 0 0 0 0 0 0 0 0 0 -0 -0 0 0 0 0 0 0 0 0 0 0 0 0 0 0 0 0 0 0 0 0 -0 0 0 0 0 -0 -0 -0
0 0 0 0 0 0 0 0 0 0 0 0 0 0 0 0 0 0 0 0 0 0 0 0 0 0 0 0 0 0 0 0 0 0 0 0 0 0 0 0 -0 -0 0
0 0 0 0 0 0 0 0 0 0 0 0 0 0 0 0 0 0 0 0 0 0 0 0 0 0 0 0 0 0 0 0 0 0 0 0 0 0 0 0 -0 -0 -0
0 0 0 0 0 0 0 0 0 0 0 0 0 0 0 0 0 0 0 0 0 0 0 0 0 0 0 0 0 0 0 0 0 0 0 0 0 0 0 0 0 0 0
0 0 0 0 0 0 0 0 0 0 0 0 0 0 0 0 0 0 0 0 0 0 0 0 0 0 0 0 0 0 0 0 0 0 0 0 0 0 0 0 0 0 0
0 0 0 0 0 0 0 0 0 0 0 0 0 0 0 0 0 0 0 0 0 0 0 0 0 0 0 0 0 0 0 0 0 0 0 0 0 0 0 0 0 0 0
0 0 0 0 0 0 0 0 0 0 0 0 0 0 0 0 0 0 0 0 0 0 0 0 0 0 0 0 0 0 0 0 0 0 0 0 0 0 0 0 0 0 0
0 0 0 0 0 0 0 0 0 0 0 0 0 0 0 0 0 0 0 0 0 0 0 0 0 0 0 0 0 0 0 0 0 0 0 0 0 0 0 0 0 0 0
0 0 0 0 0 0 0 0 0 0 0 0 0 0 0 0 0 0 0 0 0 0 0 0 0 0 0 0 0 0 0 0 0 0 0 0 0 0 0 0 0 0 0
0 0 0 0 0 0 0 0 0 0 0 0 0 0 0 0 0 0 0 0 0 0 0 0 0 0 0 0 0 0 0 0 0 0 0 0 0 0 0 0 0 0 0
0 0 0 0 0 0 0 0 0 0 0 0 0 0 0 0 0 0 0 0 0 0 0 0 0 0 0 0 0 0 0 0 0 0 0 0 0 0 0 0 0 0 0
0 0 0 0 0 0 0 0 0 0 0 0 0 0 0 0 0 0 0 0 0 0 0 0 0 0 0 0 0 0 0 0 0 0 0 0 0 0 0 0 0 0 0
0 0 0 0 0 0 0 0 0 0 0 0 0 0 0 0 0 0 0 0 0 0 0 0 0 0 0 0 0 0 0 0 0 0 0 0 0 0 0 0 0 0 0
0 0 0 0 0 0 0 0 0 0 0 0 0 0 0 0 0 0 0 0 0 0 0 0 0 0 0 0 0 0 0 0 0 0 0 0 0 0 0 0 0 0 0
0 0 0 0 0 0 0 0 0 0 0 0 0 0 0 0 0 0 0 0 0 0 0 0 0 0 0 0 0 0 0 0 0 0 0 0 0 0 0 0 0 0 0
0 0 0 0 0 0 0 0 0 0 0 0 0 0 0 0 0 0 0 0 0 0 0 0 0 0 0 0 0 0 0 0 0 0 0 0 0 0 0 0 0 0 0
0 0 0 0 0 0 0 0 0 0 0 0 0 0 0 0 0 0 0 0 0 0 0 0 0 0 0 0 0 0 0 0 0 0 0 0 0 0 0 0 0 0 0
Wind_Speed_500mb
56 56 52 46 42 36 33 34 33 33 34 34 32 32 33 31 34 35 30 27 27 27 23 24 31 33 34 38 32 40 39 34 36 32 33 31 30 31 32 30 31 31 31
63 58 54 47 42 37 34 32 31 31 32 34 35 33 33 35 33 34 27 24 24 25 21 22 28 29 33 37 38 38 32 32 35 26 25 31 32 29 34 32 30 28 27
61 60 54 48 42 38 36 33 30 29 30 32 36 36 34 34 34 36 27 16 22 23 22 26 29 32 34 37 34 31 26 28 31 30 25 22 23 22 21 21 21 23 24
59 61 54 48 42 39 38 35 33 33 33 37 42 37 37 38 39 36 26 21 16 16 22 27 30 32 33 33 33 30 25 24 28 28 25 23 24 24 23 22 23 23 23
57 60 55 48 43 41 40 38 41 38 39 43 42 40 44 45 46 32 19 15 20 23 24 28 30 30 30 29 26 24 15 16 18 20 21 22 22 23 22 22 21 21 21
58 59 54 49 44 43 42 44 46 41 38 43 42 47 48 38 28 21 17 17 15 24 24 26 27 27 28 26 22 19 20 20 18 18 20 19 19 19 20 20 21 21 21
61 60 55 49 47 46 45 49 50 43 40 43 41 38 35 28 23 18 13 12 13 23 22 25 26 25 24 22 19 17 17 15 15 15 17 17 17 18 19 19 19 19 21
63 63 56 49 48 48 48 51 51 46 43 43 40 36 32 27 19 12 11 14 19 24 23 23 24 22 21 19 16 13 14 11 14 15 16 17 16 15 14 15 16 15 17
64 62 57 52 50 50 50 52 52 49 44 42 38 32 26 21 18 17 14 17 25 26 24 22 21 19 18 17 14 10 10 9 12 15 16 17 14 13 12 13 14 12 10
65 62 57 55 56 57 54 52 53 52 45 39 32 26 21 18 19 21 12 13 29 26 24 21 18 16 15 15 14 10 7 7 11 13 14 15 14 13 13 13 13 16 16
66 64 61 60 61 61 57 54 52 48 44 37 29 24 20 19 20 18 15 19 27 25 22 19 15 13 13 11 11 10 7 5 8 11 11 14 15 14 12 11 13 11 7
73 69 64 65 65 64 60 56 53 49 45 35 27 23 21 21 21 21 21 25 26 24 21 17 13 10 8 6 4 7 5 3 6 7 11 14 15 12 11 9 9 7 5
73 73 70 69 68 67 63 58 54 52 44 33 28 24 21 21 22 25 24 25 24 22 19 15 11 8 5 6 4 4 3 1 4 7 9 10 11 11 10 8 8 6 5
73 76 73 70 70 65 62 58 54 50 40 34 30 25 22 22 24 20 23 23 22 19 16 13 10 5 4 3 2 3 1 1 3 6 8 10 8 10 10 9 7 7 7
70 76 74 72 70 65 63 58 52 44 38 32 30 26 23 21 18 17 21 21 21 18 14 10 7 5 5 5 6 8 7 5 4 7 7 7 10 11 8 8 7 4 7
67 78 76 73 69 65 61 56 50 44 38 32 31 25 23 17 17 22 23 18 20 16 11 8 4 3 4 7 8 5 7 7 10 10 10 7 9 10 8 4 4 2 6
71 79 76 72 67 64 59 54 51 46 38 31 32 27 24 22 25 21 22 18 16 11 8 5 4 3 5 2 4 7 1 3 3 5 7 13 9 9 11 6 3 2 4
71 73 70 70 66 59 57 56 51 47 39 30 30 29 28 28 25 24 21 19 15 12 12 9 7 2 0 4 7 4 10 11 4 8 11 17 14 11 16 5 4 4 2
72 72 74 72 66 61 56 53 52 48 40 34 29 31 33 31 27 26 20 17 14 12 9 11 9 6 4 1 2 8 5 6 4 10 18 15 14 12 10 7 6 7 6
75 76 76 74 68 64 55 51 52 53 44 38 29 31 33 31 29 25 23 21 17 15 14 12 10 7 3 2 2 4 1 9 7 9 2 4 8 8 11 12 14 14 15
71 83 79 85 78 71 64 58 59 60 48 42 32 27 28 29 30 26 28 27 25 19 15 10 11 9 7 3 4 4 7 14 18 13 12 10 14 18 24 25 26 22 20
77 77 88 88 84 80 73 67 63 58 54 44 37 37 36 36 36 34 31 30 28 24 20 13 15 11 12 11 10 12 13 14 20 21 21 24 26 28 31 33 30 30 28
63 86 81 83 84 81 71 65 64 52 48 48 48 45 42 40 39 42 41 36 31 28 22 18 16 17 17 17 19 21 10 11 16 24 29 33 36 37 38 38 38 35 34
38 52 62 66 76 81 65 68 66 65 63 59 55 48 44 41 43 48 45 42 31 28 26 26 27 30 29 32 30 29 30 36 16 16 38 43 42 47 45 40 40 38 32
34 42 63 67 68 66 79 67 61 66 69 58 49 47 48 49 47 50 36 34 29 29 33 37 39 39 36 36 35 38 39 37 34 41 29 34 43 50 49 45 42 32 31
24 20 51 61 69 60 68 70 61 56 50 47 46 45 43 47 46 40 38 36 35 38 41 38 39 41 42 40 37 37 40 40 41 36 36 47 39 47 39 46 32 27 26
Wind_Direction_500mb
177 170 170 171 163 160 168 162 162 164 163 160 159 153 143 130 124 134 126 113 95 81 80 101 110 112 109 105 105 112 103 102 98 93 87 84 86 83 83 84 89 81 87
168 171 172 173 166 163 170 163 162 164 166 169 167 161 152 145 137 144 131 117 96 80 81 99 108 111 107 108 102 94 95 91 88 82 86 97 94 82 85 80 70 82 81
171 172 173 173 169 168 169 163 160 161 161 166 166 162 158 153 146 146 132 124 96 81 90 104 106 109 113 111 104 91 86 89 83 80 83 87 86 83 84 75 73 69 64
173 173 174 173 171 170 168 161 155 152 150 146 142 149 150 151 147 149 137 124 104 90 105 110 111 113 117 114 104 98 84 82 76 72 75 75 77 74 71 67 64 61 56
176 173 172 173 172 169 166 159 154 149 145 140 141 138 145 145 144 139 139 118 112 117 117 117 115 113 117 117 114 117 117 85 73 69 67 69 70 70 70 67 62 57 52
176 173 172 173 171 168 166 160 155 150 147 149 144 142 142 142 147 151 137 113 111 121 125 120 119 117 117 121 116 109 104 93 82 67 63 64 67 67 64 60 55 52 51
175 174 173 173 171 170 168 163 158 154 148 149 150 153 158 159 154 149 141 137 141 128 129 123 119 116 115 117 113 103 88 81 83 74 69 58 56 57 55 54 53 53 52
176 174 173 174 171 169 168 165 164 160 154 148 149 149 148 155 157 161 190 177 159 150 136 127 122 117 113 110 107 100 96 86 78 73 60 50 46 42 42 41 41 45 50
178 176 174 173 170 170 168 167 168 165 161 151 151 154 159 167 173 166 172 152 152 152 142 133 125 119 113 107 106 106 93 73 70 63 55 43 35 31 31 30 28 21 40
181 180 177 174 172 171 169 169 169 169 166 163 161 166 175 186 187 191 186 157 147 149 143 138 130 124 119 119 121 121 88 60 57 53 40 29 27 22 23 27 29 20 37
183 182 180 176 173 173 171 170 171 171 170 170 174 180 189 192 192 191 169 148 147 147 144 139 138 137 133 133 133 124 110 99 64 47 34 22 22 19 16 22 26 21 28
183 181 183 177 175 175 174 173 174 174 176 179 184 188 191 188 183 174 161 154 150 148 148 152 152 148 150 149 123 107 97 78 37 35 21 19 18 12 10 19 20 17 63
188 180 183 180 178 179 178 177 177 179 180 185 190 192 191 183 171 166 164 160 158 158 160 156 151 152 161 164 139 108 97 346 12 7 3 2 20 25 23 23 8 21 34
190 183 183 183 182 183 179 178 176 180 185 186 188 192 191 175 163 158 162 167 166 163 162 159 145 144 151 128 83 58 58 43 354 20 356 323 30 18 16 14 23 51 14
191 186 185 184 183 181 180 179 182 183 183 185 192 193 186 171 171 162 163 167 170 167 168 159 139 115 135 139 117 93 74 69 47 39 17 347 360 358 14 30 59 20 319
195 187 188 187 186 185 185 184 184 183 180 187 196 194 188 183 187 170 156 156 164 153 163 150 126 121 154 117 127 82 60 64 59 44 4 355 344 340 22 45 137 144 339
196 186 189 189 187 188 190 188 187 184 184 192 198 201 192 191 187 193 171 165 166 165 175 185 209 154 95 52 105 47 181 11 346 295 299 344 312 330 8 20 36 251 289
193 185 189 189 188 186 189 190 188 186 189 193 195 196 190 190 189 186 191 190 181 190 201 185 179 134 13 305 183 248 267 252 281 285 292 322 310 308 349 3 15 2 87
197 187 190 191 189 192 192 192 190 189 187 195 196 193 188 186 188 193 181 182 178 177 179 188 195 193 257 208 80 43 45 64 310 300 308 301 312 343 341 339 308 278 241
199 191 189 191 191 194 193 194 192 191 195 195 199 200 199 191 191 191 185 182 181 184 192 203 227 200 167 128 346 310 273 294 287 317 310 296 297 313 319 293 279 266 259
203 194 194 192 193 196 198 192 191 192 196 195 195 198 201 206 198 187 196 195 196 196 195 204 195 202 195 213 226 219 259 259 253 264 261 269 288 287 283 297 302 289 273
207 198 193 196 195 199 202 202 203 199 196 195 199 207 211 208 209 204 209 207 204 199 200 214 209 211 223 227 238 249 249 236 239 253 256 258 267 270 280 286 287 288 290
186 200 204 195 194 197 194 191 199 195 201 201 211 210 211 216 217 214 217 214 211 214 216 223 231 226 230 236 245 246 256 251 242 247 257 264 268 270 273 280 279 280 280
195 188 196 201 207 201 206 195 200 202 204 209 212 212 216 223 224 223 223 216 215 223 224 228 229 235 239 246 257 265 261 265 231 235 239 249 252 261 270 275 274 273 274
210 185 183 197 202 202 199 192 195 200 208 212 217 221 227 230 232 234 220 213 209 226 229 231 235 241 247 257 260 265 269 272 273 271 265 255 257 255 259 266 267 276 285
168 155 163 181 189 193 199 200 202 201 206 209 213 222 233 236 224 210 212 221 223 229 239 244 250 254 256 261 268 270 266 267 272 274 274 275 266 259 254 268 262 271 285
Wind_Speed_850mb
56 56 52 46 42 36 33 34 33 33 34 34 32 32 33 31 34 35 30 27 27 27 23 24 31 33 34 38 32 40 39 34 36 32 33 31 30 31 32 30 31 31 31
63 58 54 47 42 37 34 32 31 31 32 34 35 33 33 35 33 34 27 24 24 25 21 22 28 29 33 37 38 38 32 32 35 26 25 31 32 29 34 32 30 28 27
61 60 54 48 42 38 36 33 30 29 30 32 36 36 34 34 34 36 27 16 22 23 22 26 29 32 34 37 34 31 26 28 31 30 25 22 23 22 21 21 21 23 24
59 61 54 48 42 39 38 35 33 33 33 37 42 37 37 38 39 36 26 21 16 16 22 27 30 32 33 33 33 30 25 24 28 28 25 23 24 24 23 22 23 23 23
57 60 55 48 43 41 40 38 41 38 39 43 42 40 44 45 46 32 19 15 20 23 24 28 30 30 30 29 26 24 15 16 18 20 21 22 22 23 22 22 21 21 21
58 59 54 49 44 43 42 44 46 41 38 43 42 47 48 38 28 21 17 17 15 24 24 26 27 27 28 26 22 19 20 20 18 18 20 19 19 19 20 20 21 21 21
61 60 55 49 47 46 45 49 50 43 40 43 41 38 35 28 23 18 13 12 13 23 22 25 26 25 24 22 19 17 17 15 15 15 17 17 17 18 19 19 19 19 21
63 63 56 49 48 48 48 51 51 46 43 43 40 36 32 27 19 12 11 14 19 24 23 23 24 22 21 19 16 13 14 11 14 15 16 17 16 15 14 15 16 15 17
64 62 57 52 50 50 50 52 52 49 44 42 38 32 26 21 18 17 14 17 25 26 24 22 21 19 18 17 14 10 10 9 12 15 16 17 14 13 12 13 14 12 10
65 62 57 55 56 57 54 52 53 52 45 39 32 26 21 18 19 21 12 13 29 26 24 21 18 16 15 15 14 10 7 7 11 13 14 15 14 13 13 13 13 16 16
66 64 61 60 61 61 57 54 52 48 44 37 29 24 20 19 20 18 15 19 27 25 22 19 15 13 13 11 11 10 7 5 8 11 11 14 15 14 12 11 13 11 7
73 69 64 65 65 64 60 56 53 49 45 35 27 23 21 21 21 21 21 25 26 24 21 17 13 10 8 6 4 7 5 3 6 7 11 14 15 12 11 9 9 7 5
73 73 70 69 68 67 63 58 54 52 44 33 28 24 21 21 22 25 24 25 24 22 19 15 11 8 5 6 4 4 3 1 4 7 9 10 11 11 10 8 8 6 5
73 76 73 70 70 65 62 58 54 50 40 34 30 25 22 22 24 20 23 23 22 19 16 13 10 5 4 3 2 3 1 1 3 6 8 10 8 10 10 9 7 7 7
70 76 74 72 70 65 63 58 52 44 38 32 30 26 23 21 18 17 21 21 21 18 14 10 7 5 5 5 6 8 7 5 4 7 7 7 10 11 8 8 7 4 7
67 78 76 73 69 65 61 56 50 44 38 32 31 25 23 17 17 22 23 18 20 16 11 8 4 3 4 7 8 5 7 7 10 10 10 7 9 10 8 4 4 2 6
71 79 76 72 67 64 59 54 51 46 38 31 32 27 24 22 25 21 22 18 16 11 8 5 4 3 5 2 4 7 1 3 3 5 7 13 9 9 11 6 3 2 4
71 73 70 70 66 59 57 56 51 47 39 30 30 29 28 28 25 24 21 19 15 12 12 9 7 2 0 4 7 4 10 11 4 8 11 17 14 11 16 5 4 4 2
72 72 74 72 66 61 56 53 52 48 40 34 29 31 33 31 27 26 20 17 14 12 9 11 9 6 4 1 2 8 5 6 4 10 18 15 14 12 10 7 6 7 6
75 76 76 74 68 64 55 51 52 53 44 38 29 31 33 31 29 25 23 21 17 15 14 12 10 7 3 2 2 4 1 9 7 9 2 4 8 8 11 12 14 14 15
71 83 79 85 78 71 64 58 59 60 48 42 32 27 28 29 30 26 28 27 25 19 15 10 11 9 7 3 4 4 7 14 18 13 12 10 14 18 24 25 26 22 20
77 77 88 88 84 80 73 67 63 58 54 44 37 37 36 36 36 34 31 30 28 24 20 13 15 11 12 11 10 12 13 14 20 21 21 24 26 28 31 33 30 30 28
63 86 81 83 84 81 71 65 64 52 48 48 48 45 42 40 39 42 41 36 31 28 22 18 16 17 17 17 19 21 10 11 16 24 29 33 36 37 38 38 38 35 34
38 52 62 66 76 81 65 68 66 65 63 59 55 48 44 41 43 48 45 42 31 28 26 26 27 30 29 32 30 29 30 36 16 16 38 43 42 47 45 40 40 38 32
34 42 63 67 68 66 79 67 61 66 69 58 49 47 48 49 47 50 36 34 29 29 33 37 39 39 36 36 35 38 39 37 34 41 29 34 43 50 49 45 42 32 31
24 20 51 61 69 60 68 70 61 56 50 47 46 45 43 47 46 40 38 36 35 38 41 38 39 41 42 40 37 37 40 40 41 36 36 47 39 47 39 46 32 27 26
Wind_Direction_850mb
177 170 170 171 163 160 168 162 162 164 163 160 159 153 143 130 124 134 126 113 95 81 80 101 110 112 109 105 105 112 103 102 98 93 87 84 86 83 83 84 89 81 87
168 171 172 173 166 163 170 163 162 164 166 169 167 161 152 145 137 144 131 117 96 80 81 99 108 111 107 108 102 94 95 91 88 82 86 97 94 82 85 80 70 82 81
171 172 173 173 169 168 169 163 160 161 161 166 166 162 158 153 146 146 132 124 96 81 90 104 106 109 113 111 104 91 86 89 83 80 83 87 86 83 84 75 73 69 64
173 173 174 173 171 170 168 161 155 152 150 146 142 149 150 151 147 149 137 124 104 90 105 110 111 113 117 114 104 98 84 82 76 72 75 75 77 74 71 67 64 61 56
176 173 172 173 172 169 166 159 154 149 145 140 141 138 145 145 144 139 139 118 112 117 117 117 115 113 117 117 114 117 117 85 73 69 67 69 70 70 70 67 62 57 52
176 173 172 173 171 168 166 160 155 150 147 149 144 142 142 142 147 151 137 113 111 121 125 120 119 117 117 121 116 109 104 93 82 67 63 64 67 67 64 60 55 52 51
175 174 173 173 171 170 168 163 158 154 148 149 150 153 158 159 154 149 141 137 141 128 129 123 119 116 115 117 113 103 88 81 83 74 69 58 56 57 55 54 53 53 52
176 174 173 174 171 169 168 165 164 160 154 148 149 149 148 155 157 161 190 177 159 150 136 127 122 117 113 110 107 100 96 86 78 73 60 50 46 42 42 41 41 45 50
178 176 174 173 170 170 168 167 168 165 161 151 151 154 159 167 173 166 172 152 152 152 142 133 125 119 113 107 106 106 93 73 70 63 55 43 35 31 31 30 28 21 40
181 180 177 174 172 171 169 169 169 169 166 163 161 166 175 186 187 191 186 157 147 149 143 138 130 124 119 119 121 121 88 60 57 53 40 29 27 22 23 27 29 20 37
183 182 180 176 173 173 171 170 171 171 170 170 174 180 189 192 192 191 169 148 147 147 144 139 138 137 133 133 133 124 110 99 64 47 34 22 22 19 16 22 26 21 28
183 181 183 177 175 175 174 173 174 174 176 179 184 188 191 188 183 174 161 154 150 148 148 152 152 148 150 149 123 107 97 78 37 35 21 19 18 12 10 19 20 17 63
188 180 183 180 178 179 178 177 177 179 180 185 190 192 191 183 171 166 164 160 158 158 160 156 151 152 161 164 139 108 97 346 12 7 3 2 20 25 23 23 8 21 34
190 183 183 183 182 183 179 178 176 180 185 186 188 192 191 175 163 158 162 167 166 163 162 159 145 144 151 128 83 58 58 43 354 20 356 323 30 18 16 14 23 51 14
191 186 185 184 183 181 180 179 182 183 183 185 192 193 186 171 171 162 163 167 170 167 168 159 139 115 135 139 117 93 74 69 47 39 17 347 360 358 14 30 59 20 319
195 187 188 187 186 185 185 184 184 183 180 187 196 194 188 183 187 170 156 156 164 153 163 150 126 121 154 117 127 82 60 64 59 44 4 355 344 340 22 45 137 144 339
196 186 189 189 187 188 190 188 187 184 184 192 198 201 192 191 187 193 171 165 166 165 175 185 209 154 95 52 105 47 181 11 346 295 299 344 312 330 8 20 36 251 289
193 185 189 189 188 186 189 190 188 186 189 193 195 196 190 190 189 186 191 190 181 190 201 185 179 134 13 305 183 248 267 252 281 285 292 322 310 308 349 3 15 2 87
197 187 190 191 189 192 192 192 190 189 187 195 196 193 188 186 188 193 181 182 178 177 179 188 195 193 257 208 80 43 45 64 310 300 308 301 312 343 341 339 308 278 241
199 191 189 191 191 194 193 194 192 191 195 195 199 200 199 191 191 191 185 182 181 184 192 203 227 200 167 128 346 310 273 294 287 317 310 296 297 313 319 293 279 266 259
203 194 194 192 193 196 198 192 191 192 196 195 195 198 201 206 198 187 196 195 196 196 195 204 195 202 195 213 226 219 259 259 253 264 261 269 288 287 283 297 302 289 273
207 198 193 196 195 199 202 202 203 199 196 195 199 207 211 208 209 204 209 207 204 199 200 214 209 211 223 227 238 249 249 236 239 253 256 258 267 270 280 286 287 288 290
186 200 204 195 194 197 194 191 199 195 201 201 211 210 211 216 217 214 217 214 211 214 216 223 231 226 230 236 245 246 256 251 242 247 257 264 268 270 273 280 279 280 280
195 188 196 201 207 201 206 195 200 202 204 209 212 212 216 223 224 223 223 216 215 223 224 228 229 235 239 246 257 265 261 265 231 235 239 249 252 261 270 275 274 273 274
210 185 183 197 202 202 199 192 195 200 208 212 217 221 227 230 232 234 220 213 209 226 229 231 235 241 247 257 260 265 269 272 273 271 265 255 257 255 259 266 267 276 285
168 155 163 181 189 193 199 200 202 201 206 209 213 222 233 236 224 210 212 221 223 229 239 244 250 254 256 261 268 270 266 267 272 274 274 275 266 259 254 268 262 271 285